Tracking 27422 objects as of 30-May-2023
HD Live streaming from Space Station
objects crossing your sky now

STARLINK-3892

Track STARLINK-3892 now!
10-day predictions
STARLINK-3892 is classified as:


NORAD ID: 52488
Int'l Code: 2022-049AP
Perigee: 546.4 km
Apogee: 547.4 km
Inclination: 53.2 °
Period: 95.4 minutes
Semi major axis: 6917 km
RCS: Unknown
Launch date: May 6, 2022
Source: United States (US)
Launch site: AIR FORCE EASTERN TEST RANGE (AFETR)
Your satellite tracking list
Your tracking list is empty




NASA's NSSDC Master Catalog

Two Line Element Set (TLE):
1 52488U 22049AP  23150.47799119  .00000427  00000-0  44925-4 0  9993
2 52488  53.2187 292.0922 0000783 101.6022 258.5058 15.08834628 59148
Source of the keplerian elements: AFSPC